Simultaneous Nadir Overpasses (SNOs) Predictions

Prediction of SNOs between AQUA and NOAA-19 Satellite Orbit:

Table of predicted SNOs for the next 14.0 days since TLE Epoch: 2/26/2017
Index Date (AQUA) Time (AQUA) Lat,Lon (AQUA) SZA (AQUA ) Date (NOAA-19) Time (NOAA-19) Lat,Lon (NOAA-19) SZA (NOAA-19 ) Distance(km) Time Diff (sec)
1 02/26/2017 13:05:25 80.96, -57.17 91.95 02/26/2017 13:04:33 80.96, -57.34 91.99 2.93 52
2 02/26/2017 13:54:51 -80.96, 110.56 88.08 02/26/2017 13:55:28 -80.95, 110.66 88.11 1.83 37
3 02/28/2017 18:39:10 -80.97, 39.29 88.89 02/28/2017 18:38:22 -80.96, 39.31 88.88 1.37 48
4 02/28/2017 19:28:36 80.95,-152.81 91.06 02/28/2017 19:29:25 80.95,-152.66 91.03 2.50 49
5 03/03/2017 00:12:54 80.95, 136.20 90.20 03/03/2017 00:12:19 80.96, 136.07 90.24 2.76 35
6 03/03/2017 01:02:21 -80.96, -56.35 89.78 03/03/2017 01:03:14 -80.95, -56.17 89.83 3.21 53
7 03/05/2017 05:46:39 -80.96,-127.35 90.65 03/05/2017 05:46:07 -80.96,-127.20 90.65 2.60 32
8 03/05/2017 06:36:06 80.97, 40.14 89.36 03/05/2017 06:37:12 80.96, 40.27 89.31 2.55 66
9 03/07/2017 11:20:24 80.97, -30.92 88.50 03/07/2017 11:20:06 80.96, -31.09 88.53 3.00 18
10 03/07/2017 12:09:50 -80.95, 136.93 91.55 03/07/2017 12:11:00 -80.96, 136.88 91.57 1.08 70
11 03/09/2017 16:54:07 -80.95, 65.86 92.42 03/09/2017 16:53:52 -80.96, 65.80 92.40 1.41 15




NCC Satellite Simultaneous Nadir Overpasses (SNOs) Prediction Service
